This demonstration page uses our WeatherBlox Daily Observations layout. Learn more.

Left ArrowRight Arrow

Hourly Observations for March 5, 2022

Temp ( °F °C ) Dew Point ( °F °C ) Humidity (%) Winds ( mph kmh ) Pressure ( in mb ) Visibility ( mi km ) Precip ( " mm )
12:53 am 00:53 Clear 62 16.7 49 9.4 62 62 S 12 19 29.73 1007 10 16 0.00 0.00
1:53 am 01:53 Clear 61 16.1 49 9.4 65 65 SSW 7 11 29.73 1007 10 16 0.00 0.00
2:53 am 02:53 Clear 60 15.6 20 -6.7 21 21 SW 9 15 29.72 1007 10 16 0.00 0.00
3:53 am 03:53 Clear 56 13.3 18 -7.8 22 22 W 8 13 29.72 1007 10 16 0.00 0.00
4:53 am 04:53 Clear 54 12.2 16 -8.9 22 22 WSW 9 15 29.75 1008 10 16 0.00 0.00
5:53 am 05:53 Clear 51 10.6 15 -9.4 24 24 SW 10 17 29.78 1008 10 16 0.00 0.00
6:53 am 06:53 Clear 48 8.9 14 -10 25 25 WSW 10 17 29.82 1010 10 16 0.00 0.00
7:53 am 07:53 Sunny 48 8.9 13 -10.6 24 24 SW 8 13 29.86 1011 10 16 0.00 0.00
8:53 am 08:53 Sunny 58 14.4 14 -10 18 18 W 13 20 29.88 1012 10 16 0.00 0.00
9:53 am 09:53 Sunny 64 17.8 16 -8.9 15 15 W 12 19 29.88 1012 10 16 0.00 0.00
10:53 am 10:53 Sunny 68 20 16 -8.9 13 13 WNW 23 37 29.87 1012 10 16 0.00 0.00
11:53 am 11:53 Sunny 71 21.7 12 -11.1 10 10 W 26 43 29.87 1011 10 16 0.00 0.00
12:53 pm 12:53 Sunny 73 22.8 7 -13.9 7 7 W 23 37 29.84 1011 10 16 0.00 0.00
1:53 pm 13:53 Sunny 74 23.3 5 -15 7 7 W 20 31 29.82 1010 10 16 0.00 0.00
2:53 pm 14:53 Sunny 76 24.4 4 -15.6 6 6 W 21 33 29.80 1009 10 16 0.00 0.00
3:53 pm 15:53 Sunny 75 23.9 4 -15.6 6 6 WSW 14 22 29.79 1009 10 16 0.00 0.00
4:53 pm 16:53 Sunny 76 24.4 3 -16.1 6 6 W 18 30 29.78 1009 10 16 0.00 0.00
5:53 pm 17:53 Sunny 74 23.3 1 -17.2 5 5 W 13 20 29.80 1009 10 16 0.00 0.00
6:53 pm 18:53 Sunny 70 21.1 2 -16.7 7 7 W 9 15 29.81 1010 10 16 0.00 0.00
7:53 pm 19:53 Clear 64 17.8 3 -16.1 9 9 Calm 29.84 1010 10 16 0.00 0.00
8:53 pm 20:53 Clear 58 14.4 2 -16.7 10 10 NNW 5 7 29.84 1010 10 16 0.00 0.00
9:53 pm 21:53 Clear 50 10 1 -17.2 13 13 ENE 7 11 29.83 1010 10 16 0.00 0.00
10:53 pm 22:53 Clear 51 10.6 1 -17.2 13 13 ESE 7 11 29.83 1010 10 16 0.00 0.00
11:53 pm 23:53 Clear 49 9.4 1 -17.2 14 14 Calm 29.84 1011 10 16 0.00 0.00

Powered by AerisWeather